Vertical_Velocity
3 6 -1 -9 5 -4 -1 -1 1 -3 -1 -1 -2 4 -4 -1 2 -0 -1 -3 -1 -1
5 9 6 -2 0 -4 -3 0 -2 -0 2 -4 1 1 -2 0 -3 -1 0 -2 -0 -2
2 2 0 6 -10 2 -1 3 -4 -3 -3 1 -1 2 -0 0 -1 0 -3 -3 -0 -0
4 6 1 1 2 2 1 -2 -2 -1 -2 2 -4 -1 -1 -1 -3 1 -2 -0 -0 2
-2 -5 4 7 1 -2 2 3 -4 -3 -1 -1 -2 -4 -1 0 -2 -2 -1 -1 -1 1
-1 -0 2 -2 2 2 -1 -3 -1 1 1 2 -0 -2 -3 -2 -2 -0 -2 -1 -2 -1
-2 -1 2 -1 -0 2 1 1 -1 -3 2 0 -0 -0 -2 -3 -2 -4 0 -1 -1 -4
-3 1 -0 2 4 0 -3 -1 -1 1 0 2 7 -9 -5 0 -2 -2 -2 -3 -2 1
1 3 3 3 3 -3 1 -0 1 1 3 0 -6 -4 1 -3 5 -9 1 -6 2 -1
2 3 3 3 1 -0 -0 2 -1 -1 -4 -4 2 1 -0 -1 -3 -4 -1 -1 0 -0
3 1 -0 -3 -2 -1 -1 -3 -3 -3 0 1 1 -3 -2 -2 -3 -2 -2 -2 -2 -4
-2 -2 -2 -2 -2 -3 -3 -3 -3 -0 0 -1 1 -1 -1 -6 -5 -2 -4 0 -1 -4
-2 -2 -1 -1 -2 -2 -0 1 0 1 1 -1 -4 -3 -3 -3 -5 -9 -5 2 2 6
0 -1 -1 2 3 2 -0 -0 -2 -2 2 -1 -5 -4 -5 -1 0 1 -3 -1 -1 2
Height
3107 3110 3110 3112 3113 3113 3114 3115 3116 3117 3117 3117 3116 3113 3112 3109 3107 3106 3103 3101 3098 3096
3102 3104 3104 3105 3107 3108 3110 3111 3111 3111 3112 3111 3110 3107 3105 3103 3101 3098 3095 3092 3089 3086
3099 3099 3098 3099 3101 3102 3103 3105 3105 3105 3105 3104 3101 3100 3098 3095 3092 3089 3086 3083 3079 3077
3094 3093 3094 3094 3096 3097 3098 3099 3100 3099 3099 3097 3095 3092 3090 3086 3083 3080 3077 3073 3070 3067
3087 3090 3089 3090 3092 3092 3093 3094 3094 3093 3092 3089 3086 3083 3080 3077 3073 3070 3066 3063 3059 3056
3083 3085 3086 3086 3087 3088 3089 3088 3087 3086 3084 3081 3077 3073 3070 3066 3062 3060 3056 3052 3048 3045
3078 3080 3081 3082 3082 3082 3081 3081 3079 3077 3074 3070 3066 3063 3060 3056 3053 3049 3045 3042 3036 3031
3075 3076 3077 3077 3077 3076 3075 3073 3070 3067 3063 3060 3057 3053 3052 3047 3042 3038 3033 3030 3024 3017
3069 3071 3071 3071 3069 3068 3065 3062 3060 3057 3054 3052 3048 3046 3041 3036 3030 3026 3020 3015 3011 3006
3065 3065 3064 3062 3060 3057 3055 3054 3052 3049 3046 3042 3040 3035 3030 3024 3019 3014 3010 3004 2999 2994
3058 3058 3056 3054 3052 3050 3048 3045 3042 3040 3036 3032 3029 3024 3018 3012 3007 3002 2999 2995 2989 2984
3051 3050 3048 3046 3043 3040 3038 3034 3032 3029 3025 3020 3016 3013 3008 3002 2997 2991 2987 2983 2978 2974
3042 3040 3038 3036 3033 3030 3027 3025 3022 3018 3014 3010 3005 3002 2995 2990 2983 2976 2972 2969 2966 2963
3033 3031 3028 3026 3024 3021 3018 3015 3012 3008 3004 2999 2994 2987 2981 2977 2969 2963 2958 2955 2954 2952